Regional Weather Roundup
Issued by NWS Little Rock, AR

Home | Current Version | Previous Version | Text Only | Print | Product List | Glossary Off
Versions: 1 2 3 4 5 6 7 8 9 10 11 12 13 14 15 16 17 18 19 20 21 22 23 24 25 26 27 28 29 30 31 32 33 34 35 36 37 38 39 40 41 42 43 44 45 46 47 48 49 50

000
ASUS44 KLZK 281005
RWRLZK

WEATHER ROUNDUP FOR ARKANSAS
NATIONAL WEATHER SERVICE LITTLE ROCK AR
500 AM CDT SAT MAR 28 2015

NOTE: "FAIR" INDICATES FEW OR NO CLOUDS BELOW 12,000 FEET WITH NO
SIGNIFICANT WEATHER AND/OR OBSTRUCTIONS TO VISIBILITY.

ARZ001-003-010-029-281100-
NORTHWEST ARKANSAS

CITY           SKY/WX    TMP DP  RH WIND       PRES   REMARKS
FAYETTEVILLE   CLOUDY    40  35  83 CALM      30.09F
FORT SMITH     CLOUDY    46  33  60 E8        30.11S
HARRISON       CLOUDY    40  26  57 SE7       30.10S
BENTONVILLE    CLOUDY    41  27  56 SE6       30.08F
ROGERS         CLOUDY    41  27  57 SE7       30.08F
SILOAM SPGS    CLOUDY    41  27  56 SE5       30.09F
HIGHFILL       CLOUDY    42  28  57 SE7       30.07F
$$

ARZ004-005-016-281100-
NORTH CENTRAL ARKANSAS

CITY           SKY/WX    TMP DP  RH WIND       PRES   REMARKS
BATESVILLE     CLOUDY    39  27  60 SE6       30.19R
FLIPPIN        CLOUDY    39  27  60 E6        30.13S
MTN HOME       CLOUDY    37  26  64 SE9       30.12S
$$

ARZ040-041-281100-
WEST CENTRAL ARKANSAS

CITY           SKY/WX    TMP DP  RH WIND       PRES   REMARKS
MENA           CLOUDY    41  37  87 CALM      30.12R
MOUNT IDA      CLOUDY    40  36  86 CALM      30.11S
$$

ARZ009-017-025-026-028-281100-
NORTHEAST ARKANSAS

CITY           SKY/WX    TMP DP  RH WIND       PRES   REMARKS
CORNING          N/A     36  32  87 CALM      30.20R
JONESBORO      CLOUDY    36  29  75 CALM      30.20R
NEWPORT        CLOUDY    39  30  70 SE8       30.21R
BLYTHEVILLE    CLOUDY    36  27  69 E6        30.19F
$$

ARZ022-023-033-042-044-281100-
CENTRAL ARKANSAS

CITY           SKY/WX    TMP DP  RH WIND       PRES   REMARKS
LITTLE ROCK    MOCLDY    42  33  70 CALM      30.17S
N LITTLE ROCK    N/A     43  35  72 E6        30.17S
JACKSONVILLE   MOCLDY    41  34  75 E5        30.16S
SEARCY         CLOUDY    40  30  67 E5        30.20S
HOT SPRINGS    MOCLDY    42  34  73 E6        30.14F
RUSSELLVILLE   CLOUDY    43  38  82 CALM      30.14S
CLINTON        FAIR      41  32  70 E5        30.17S
$$

ARZ036-281100-
EAST ARKANSAS

CITY           SKY/WX    TMP DP  RH WIND       PRES   REMARKS
WEST MEMPHIS   CLOUDY    37  24  59 SE7       30.19F
$$

ARZ050-053-066-070-073-281100-
SOUTHWEST ARKANSAS

CITY           SKY/WX    TMP DP  RH WIND       PRES   REMARKS
ARKADELPHIA    FAIR      41  40  96 CALM      30.17R
CAMDEN         CLEAR     37  36  93 CALM      30.16F
TEXARKANA      PTCLDY    44  36  73 S6        30.12F
EL DORADO      CLEAR     38  35  89 CALM      30.16F
DE QUEEN       MOCLDY    38  37  97 E5        30.11F
$$

ARZ056-057-069-281100-
SOUTHEAST ARKANSAS

CITY           SKY/WX    TMP DP  RH WIND       PRES   REMARKS
PINE BLUFF     PTCLDY    40  36  86 S3        30.18S
STUTTGART      CLOUDY    43  34  70 E8        30.19R
MONTICELLO     CLEAR     37  35  92 CALM      30.18S

$$





USA.gov is the U.S. government's official web portal to all federal, state and local government web resources and services.